IRIDIUM 102

Last updated on Tue Sep 22 2026 00:03:20 GMT+0000 (Coordinated Universal Time)

1 41920U 17003D 26264.40775729 .00000236 00000+0 77227-4 0 9997 2 41920 86.3951 48.1770 0002075 93.5536 266.5897 14.34217411507072
UTC large
Height (km)
Speed (km/s)
/
Latitude / Longitude
Inclination (degrees)
Orbital Period (minutes)
Azimuth
Elevation
Range (km)
Doppler Factor

Next 0 passes for location: London (51.5072 / 0.1276)

No passes found over London.
IRIDIUM 102